Regional Weather Roundup
Issued by NWS

Home | Current Version | Previous Version | Graphics & Text | Print | Product List | Glossary On
Versions: 1 2 3 4 5 6 7 8 9 10 11 12 13 14 15 16 17 18 19 20 21 22 23 24 25 26 27 28 29 30 31 32 33 34 35 36 37 38 39 40 41 42 43 44 45 46 47 48 49 50
000
ASUS43 KFSD 270602
RWRSD

WEATHER ROUNDUP FOR SOUTH DAKOTA
NATIONAL WEATHER SERVICE SIOUX FALLS SD
100 AM CDT SAT AUG 27 2016

NOTE: "FAIR" INDICATES FEW OR NO CLOUDS BELOW 12,000 FEET WITH NO
SIGNIFICANT WEATHER AND/OR OBSTRUCTIONS TO VISIBILITY.


SDZ001>005-009-010-012>017-270700-
NORTHWEST AND NORTH CENTRAL SOUTH DAKOTA

CITY           SKY/WX    TMP DP  RH WIND       PRES   REMARKS
BUFFALO          N/A     52  49  89 SW7       29.94F
FAITH            N/A     54  54 100 S7        30.01S
MOBRIDGE       CLOUDY    61  54  77 SE10      29.99F
$$

SDZ012>016-024>037-041>051-057-063-072>074-270700-
SOUTHWEST AND SOUTH CENTRAL SOUTH DAKOTA

CITY           SKY/WX    TMP DP  RH WIND       PRES   REMARKS
RAPID CTY ARPT CLOUDY    57  56  96 NW12      30.06R
PIERRE         MOCLDY    58  54  86 SE10      29.99F
CUSTER         CLOUDY    51  47  86 CALM      30.11F
ELLSWORTH AFB  TSTM      59  57  94 NW20G36   30.06
PHILIP         CLOUDY    61  58  90 S12G20    29.98F
PINE RIDGE     TSTM      57  57 100 W12       30.13R
WINNER         FAIR      59  55  87 CALM      30.05F
$$

SDZ004>011-016>023-039-040-270700-
NORTHEAST SOUTH DAKOTA

CITY           SKY/WX    TMP DP  RH WIND       PRES   REMARKS
ABERDEEN       MOCLDY    56  54  93 SE7       30.02F
WATERTOWN      CLOUDY    63  57  81 S7        30.05F
BROOKINGS      CLOUDY    62  59  90 SE9       30.07F
$$

SDZ017-020-022-023-036>040-048>070-270700-
SOUTHEAST SOUTH DAKOTA

CITY           SKY/WX    TMP DP  RH WIND       PRES   REMARKS
SIOUX FALLS    CLOUDY    65  61  87 SE10      30.06F
HURON          MOCLDY    62  58  86 SE6       30.03F
CHAMBERLAIN    MOCLDY    58  57  98 SE6       30.04F
MITCHELL       CLOUDY    66  60  81 SE13      30.04F
YANKTON        CLOUDY    63  59  88 E7        30.04F
$$

ABBREVIATIONS USED IN REMARKS
   TC - TEMPERATURE IN CELSIUS
  WCI - WIND CHILL INDEX
   HX - HEAT INDEX
  VSB - VISIBILITY





USA.gov is the U.S. government's official web portal to all federal, state and local government web resources and services.